Regional Weather Roundup
Issued by NWS

Home | Current Version | Previous Version | Graphics & Text | Print | Product List | Glossary On
Versions: 1 2 3 4 5 6 7 8 9 10 11 12 13 14 15 16 17 18 19 20 21 22 23 24 25 26 27 28 29 30 31 32 33 34 35 36 37 38 39 40 41 42 43 44 45 46 47 48 49 50
631
ASUS43 KDMX 101403
RWRIA

WEATHER ROUNDUP FOR IOWA
NATIONAL WEATHER SERVICE DES MOINES IA
800 AM CST WED FEB 10 2016

NOTE: "FAIR" INDICATES FEW OR NO CLOUDS BELOW 12,000 FEET WITH NO
SIGNIFICANT WEATHER AND/OR OBSTRUCTIONS TO VISIBILITY.

* - THESE STATIONS ARE NOT NWS STATIONS...THUS NOT UNDER NWS
QUALITY CONTROL.  THEY ALSO DO NOT REPORT WEATHER SUCH
AS PRECIPITATION OR FOG.

IAZ001>003-012>014-020>022-031>034-043>046-101500-
   NORTHWEST IOWA

CITY           SKY/WX    TMP DP  RH WIND       PRES   REMARKS
CARROLL *      LGT SNOW  16  14  93 SE12      30.05F WCI   3
CHEROKEE *     LGT SNOW  19  17  93 SE6       30.04R WCI  10
DENISON *      LGT SNOW  21  18  86 SE9       30.01F WCI  11
LE MARS *      CLOUDY    21  21 100 SE12G17   30.00S FOG     WCI   9
ORANGE CITY *  LGT SNOW  19  18  93 SE7       29.98F WCI  10
SHELDON *      LGT SNOW  16  14  93 SE13      29.98F WCI   2
SIOUX CITY     CLOUDY    24  17  74 SE12      29.98F WCI  13
SPENCER        LGT SNOW  12   7  80 E10       30.03F WCI  -1
STORM LAKE *   LGT SNOW  16  16 100 SE13      30.01F WCI   2
$$

IAZ055>058-069>071-079>083-090>094-101500-
   SOUTHWEST IOWA

CITY           SKY/WX    TMP DP  RH WIND       PRES   REMARKS
ATLANTIC *     CLOUDY    23  18  80 SE5       30.05S WCI  17
AUDUBON *      LGT SNOW  19  16  86 CALM      30.05S
CLARINDA *     CLOUDY    25  19  80 SE6       30.08F WCI  18
COUNCIL BLFS * CLOUDY    27  18  69 S10       30.00F WCI  17
CRESTON *      CLOUDY    21  18  86 CALM      30.08F
HARLAN  *      CLOUDY    21  19  93 SE8       30.07S WCI  12
LAMONI         LGT SNOW  20  15  81 CALM      30.08F
RED OAK *      CLOUDY    25  19  80 SE7       30.04F WCI  17
SHENANDOAH *   CLOUDY    27  19  74 S9        30.06F WCI  17
$$

IAZ047>049-059>061-072>074-084-101500-
   CENTRAL IOWA

CITY           SKY/WX    TMP DP  RH WIND       PRES   REMARKS
AMES           LGT SNOW  13   7  77 CALM      30.10F
ANKENY *       LGT SNOW  14   9  79 CALM      30.11F
BOONE *        LGT SNOW  10   7  85 E3        30.07F
CHARITON *     LGT SNOW  16  10  79 S3        30.10F
DES MOINES     LGT SNOW  16   9  74 CALM      30.10S
GRINNELL*      CLOUDY    12   5  73 NW3       30.11R
KNOXVILLE *    CLOUDY    16   7  67 CALM      30.10F
MARSHALLTOWN   CLOUDY     9   2  73 NW5       30.10S WCI   1
NEWTON *       CLOUDY    12   5  73 CALM      30.10F
PELLA *        PTCLDY    15   7  71 CALM      30.13S
$$

IAZ004>006-015-016-023>025-035-036-101500-
   NORTH CENTRAL IOWA

CITY           SKY/WX    TMP DP  RH WIND       PRES   REMARKS
ALGONA *       LGT SNOW   9   5  85 E6        30.06F WCI  -1
CLARION *      LGT SNOW   9   1  72 CALM      30.08F
ESTHERVILLE    LGT SNOW   8   5  87 E8        30.04F VSB 3/4 WCI  -4
FORT DODGE *   CLOUDY    10   3  72 E8        30.07F WCI  -1
MASON CITY     CLOUDY     6  -1  73 N5        30.09S WCI  -3
FOREST CITY *    N/A      9   1  72 CALM      30.07F
WEBSTER CITY * LGT SNOW  10   5  79 NE6       30.07S WCI   1
IOWA FALLS *   CLOUDY    10   5  79 W3        30.09S
$$

IAZ007>011-017>019-026>030-037>042-050>054-066-101500-
   NORTHEAST IOWA

CITY           SKY/WX    TMP DP  RH WIND       PRES   REMARKS
CEDAR RAPIDS   CLOUDY     8   2  76 N7        30.10S WCI  -3
CHARLES CITY * CLOUDY     3  -2  78 NW6       30.09S WCI  -8
CLINTON *      CLOUDY     7   1  76 W12       30.11R WCI  -8
DECORAH *      CLEAR      0  -8  71 NW7       30.05F WCI -13
DUBUQUE        CLOUDY     5  -4  66 NW13      30.06R WCI -12
MONTICELLO *   CLOUDY     7  -2  66 NW8       30.10S WCI  -6
OELWEIN *      CLOUDY     3  -4  72 NW7       30.09S WCI  -9
WATERLOO       MOCLDY     5  -1  76 NW6       30.11S WCI  -6
$$

IAZ064-065-067-068-078-101500-
   EAST CENTRAL IOWA

CITY           SKY/WX    TMP DP  RH WIND       PRES   REMARKS
DAVENPORT      PTCLDY     7   0  73 NW9       30.11R WCI  -7
IOWA CITY      CLOUDY    10   1  67 NW6       30.14F WCI   0
MT. PLEASANT * CLOUDY    14   6  68 NW8       30.13S WCI   3
MUSCATINE *    PTCLDY    10   1  67 NW8       30.15S WCI  -1
QUAD CITIES    PTCLDY     9  -1  64 NW10      30.12S WCI  -5
$$

IAZ062-063-075>077-085>089-095>099-101500-
   SOUTHEAST IOWA

CITY           SKY/WX    TMP DP  RH WIND       PRES   REMARKS
BURLINGTON     PTCLDY    10   5  80 NW6       30.13S WCI   0
FAIRFIELD *    CLOUDY    12   3  67 NW6       30.13S WCI   3
FORT MADISON * MOCLDY    12   7  79 NW7       30.13S WCI   2
KEOKUK *       CLOUDY    14   7  73 NW6       30.15R WCI   5
OSKALOOSA *    MOCLDY    13   6  72 NW5       30.12F WCI   6
OTTUMWA        CLOUDY    14   5  67 NW5       30.12F WCI   6
WASHINGTON *   CLOUDY    10   1  67 NW8       30.14S WCI  -1
$$

ABBREVIATIONS USED IN REMARKS
   TC - TEMPERATURES IN CELSIUS
  WCI - WIND CHILL INDEX
   HX - HEAT INDEX
  VSB - VISIBILITY
$$





USA.gov is the U.S. government's official web portal to all federal, state and local government web resources and services.